Regional Weather Roundup
Issued by NWS

Home | Current Version | Previous Version | Text Only | Print | Product List | Glossary On
Versions: 1 2 3 4 5 6 7 8 9 10 11 12 13 14 15 16 17 18 19 20 21 22 23 24 25 26 27 28 29 30 31 32 33 34 35 36 37 38 39 40 41 42 43 44 45 46 47 48 49 50
000
ASCA44 KEWX 271820
RWRMX

LATIN AMERICA AND CARIBBEAN REGIONAL WEATHER ROUNDUP
NATIONAL WEATHER SERVICE AUSTIN/SAN ANTONIO TX
100 PM CDT MON APR 27 2015

NOTE: "FAIR" INDICATED FEW OR NO CLOUDS BELOW 12,000 FEET WITH NO
SIGNIFICANT WEATHER AND/OR OBSTRUCTIONS TO VISIBILITY.

BAJA CALIFORNIA

CITY           SKY/WX    TMP DP  RH WIND       PRES   REMARKS
LORETO         SUNNY     75  54  46 NE12      29.82S
LA PAZ         SUNNY     79  54  41 N12       29.85
MEXICALI       SUNNY     79  19  11 NW21      29.94
S.J. DEL CABO  MOSUNNY   81  57  44 SE16      29.85S
TIJUANA        SUNNY     77  30  18 NW7       29.96F

NORTHWESTERN MEXICO

CITY           SKY/WX    TMP DP  RH WIND       PRES   REMARKS
CULIACAN       MOSUNNY   88  54  31 CALM      29.83
DURANGO        CLOUDY    73  14  10 S12       30.04
GUAYMAS          N/A    N/A N/A N/A MISG        N/A
HERMOSILLO     SUNNY     82  30  15 SE5       29.85
CD. JUAREZ     PTSUNNY   61  41  48 E5        29.93
LOS MOCHIS     SUNNY     81  50  34 W8        29.83S
OBREGON        SUNNY     81  43  26 SW7       29.79

NORTHEASTERN MEXICO

CITY           SKY/WX    TMP DP  RH WIND       PRES   REMARKS
CHIHUAHUA      MOSUNNY   66  32  28 N7        29.94F
MATAMOROS      CLOUDY    82  75  78 NW12      29.65
MONTERREY      PTSUNNY   82  36  18 N10G22    29.76F
NUEVO LAREDO   PTSUNNY   84  43  23 N9        29.74
PIEDRAS NEGRAS MOSUNNY   82  55  39 NW7       29.77S
REYNOSA        PTSUNNY   77  61  57 NW10      29.69
SALTILLO       PTSUNNY   82  52  34 N6        29.92F
TORREON        PTSUNNY   79  32  18 N6        29.87F
CD. VICTORIA   MOSUNNY   81  45  28 NW9       29.73

WESTERN MEXICO

CITY           SKY/WX    TMP DP  RH WIND       PRES   REMARKS
AGUASCALIENTES MOSUNNY   75  36  23 SW12      30.08
COLIMA         PTSUNNY   82  57  42 SW9       29.94F
DEL BAJIO      PTSUNNY   81  46  30 W16       30.15F
GUADALAJARA    PTSUNNY   81  45  28 CALM      30.05
MANZANILLO     MOSUNNY   84  72  65 S6        29.80S
MAZATLAN       PTSUNNY   79  54  41 SW9       29.82S
P. VALLARTA    PTSUNNY   82  72  69 W8        29.81F
URUAPAN        PTSUNNY   77  55  47 E12       30.11R
ZACATECAS      PTSUNNY   70  39  32 W17       30.14R

CENTRAL MEXICO

CITY           SKY/WX    TMP DP  RH WIND       PRES   REMARKS
CUERNAVACA     PTSUNNY   84  39  20 CALM      30.01F
MEXICO CITY    PTSUNNY   79  37  22 S3        30.17F
MORELIA        MOSUNNY   75  45  33 S18       30.12
POZA RICA      PTSUNNY   99  73  44 E8        29.63R HX 109
PUEBLA         PTSUNNY   75  46  35 S16       30.20F
QUERETARO      PTSUNNY   77  45  31 W8        30.14S
S. LUIS POTOSI CLOUDY    79  37  22 W14       30.04F
TAMPICO        MOSUNNY   90  75  62 N20       29.61R HAZE    HX 100
TOLUCA         PTSUNNY   72  36  26 SE6       30.29S

SOUTHERN MEXICO

CITY           SKY/WX    TMP DP  RH WIND       PRES   REMARKS
ACAPULCO       SUNNY     86  75  70 SW7       29.81F HX  95
B. DE HUATULCO SUNNY     93  79  62 W17       29.78F HX 110
OAXACA         PTSUNNY   82  39  21 S8        30.07F
P. ESCONDIDO   SUNNY     84  75  74 W12       29.95S HX  92
VERACRUZ       SUNNY     99  66  34 SW6       29.58F HX 102
ZIHUATANEJO    MOSUNNY   86  77  74 SW12      29.83F HX  97

YUCATAN PENINSULA

CITY           SKY/WX    TMP DP  RH WIND       PRES   REMARKS
CAMPECHE       PTSUNNY   91  75  59 NW12G23   29.62F HX 102
CANCUN         MOSUNNY   88  75  66 SE16G33   29.75F HX  97
CHETUMAL       MOSUNNY   86  77  74 SE21      29.70  HX  97
CD. DEL CARMEN SUNNY     91  73  55 SE6       29.65  SMOKE   HX 100
COZUMEL        PTSUNNY   84  75  74 S17       29.76F HX  92
MERIDA         MOSUNNY  100  70  37 S7        29.66F HX 107
MINATITLAN     SUNNY     99  75  47 S12       29.59  HX 111
TAPACHULA      MOSUNNY   88  79  74 CALM      29.81F HX 102
TUX. GUTIERREZ MOSUNNY   91  63  38 SE9G21    29.82F HX  92
VILLAHERMOSA   SUNNY     97  75  49 NW6       29.65F HX 109

CENTRAL AMERICA

CITY           SKY/WX    TMP DP  RH WIND       PRES   REMARKS
BELIZE CITY    MOSUNNY   90  79  70 SE7       29.69F HX 105
MANAGUA        PTCLDY    93  70  46 E21       29.77S HX  99

CARIBBEAN

CITY           SKY/WX    TMP DP  RH WIND       PRES   REMARKS
ARUBA          MOSUNNY   91  79  66 E24       29.77S HX 107
KINGSTON       MOSUNNY   88  77  70 SE23      29.80F HX 100
SAN JUAN       MOSUNNY   91  70  49 SE15G21   29.89F HX  97
SANTO DOMINGO  MOSUNNY   88  75  66 S9        29.89F HX  97
ST. CROIX      MOSUNNY   88  75  66 SE13      29.93  HX  97
ST. MAARTEN    MOSUNNY   86  75  70 S15       29.92  HX  95
ST. THOMAS     MOSUNNY   84  75  74 SE12      29.91  HX  92

$$



USA.gov is the U.S. government's official web portal to all federal, state and local government web resources and services.